Location: Caltech
(34.1382°N, 118.1253°W)
Time: 20:51:39
(UTC-07:00)

Saudisat 1A - Visible Passes

Search period start: 16 October 2017 00:00
Search period end: 26 October 2017 00:00
Orbit: 584 x 608 km, 64.6° (Epoch: 16 October)

Date Brightness Start Highest point End Pass type
(mag) Time Alt. Az. Time Alt. Az. Time Alt. Az.
16 Oct 9.9 06:09:34 10° N 06:13:26 30° NE 06:17:16 10° ESE visible
17 Oct 8.7 06:19:06 10° NNW 06:23:24 56° ENE 06:27:39 10° SE visible
18 Oct 11.0 04:52:00 10° NNE 04:53:22 11° NE 04:54:44 10° ENE visible
18 Oct 7.9 06:28:55 10° NNW 06:33:16 74° WSW 06:37:34 10° SSE visible
19 Oct 10.5 05:00:21 10° N 05:03:32 19° NE 05:06:41 10° E visible
19 Oct 10.4 20:39:58 10° SW 20:41:03 17° SW 20:41:03 17° SW visible
20 Oct 9.5 05:10:14 13° N 05:13:35 34° NE 05:17:31 10° ESE visible
20 Oct 9.3 19:11:49 10° SSE 19:15:06 21° ESE 19:15:24 20° ESE visible
20 Oct 10.3 20:50:18 10° WSW 20:52:08 21° WSW 20:52:08 21° WSW visible
21 Oct 8.3 05:21:07 25° NNW 05:23:32 65° ENE 05:27:48 10° SE visible
21 Oct 8.5 19:20:41 10° S 19:24:48 39° ESE 19:26:21 29° ENE visible
21 Oct 10.7 21:01:12 10° W 21:03:05 17° WNW 21:03:05 17° WNW visible
22 Oct 11.3 03:55:24 10° ENE 03:55:24 10° ENE 03:55:27 10° ENE visible
22 Oct 7.9 05:32:09 43° NW 05:33:22 64° WSW 05:37:37 10° SSE visible
22 Oct 7.9 19:30:10 10° SSW 19:34:35 79° ESE 19:37:09 25° NE visible
22 Oct 11.2 21:13:17 10° WNW 21:13:52 11° NW 21:13:52 11° NW visible
23 Oct 11.0 04:06:32 12° E 04:06:32 12° E 04:07:02 10° ESE visible
23 Oct 8.7 05:43:16 32° WSW 05:43:16 32° WSW 05:46:56 10° S visible
23 Oct 8.7 19:40:08 10° SW 19:44:27 53° WNW 19:47:45 17° NNE visible
24 Oct 11.0 04:17:41 10° SE 04:17:41 10° SE 04:17:45 10° SE visible
24 Oct 9.9 05:54:26 14° SW 05:54:26 14° SW 05:55:30 10° SSW visible
24 Oct 9.9 19:50:34 10° WSW 19:54:25 29° NW 19:58:11 11° N visible
25 Oct 10.7 20:01:35 10° W 20:04:30 17° NW 20:07:24 10° N visible
